Waarnemingen

Advertentie
Mijn weer
Blois, Frankrijk (7245): temperatuur & dauwpunt: 14.11.2018 12:00:00 - 20.11.2018 12:00:00 (CET)Blois, Frankrijk (7245): temperatuur 5cm: 14.11.2018 12:00:00 - 20.11.2018 12:00:00 (CET)Blois, Frankrijk (7245): temperatuur -20cm & temperatuur -100cm: 14.11.2018 12:00:00 - 20.11.2018 12:00:00 (CET)Blois, Frankrijk (7245): windsnelheid & windstoten: 14.11.2018 12:00:00 - 20.11.2018 12:00:00 (CET)Blois, Frankrijk (7245): windrichting: 14.11.2018 12:00:00 - 20.11.2018 12:00:00 (CET)Blois, Frankrijk (7245): luchtdruk: 14.11.2018 12:00:00 - 20.11.2018 12:00:00 (CET)Blois, Frankrijk (7245): zicht: 14.11.2018 12:00:00 - 20.11.2018 12:00:00 (CET)Blois, Frankrijk (7245): Zonneschijnduur: 14.11.2018 12:00:00 - 20.11.2018 12:00:00 (CET)Blois, Frankrijk (7245): neerslag: 14.11.2018 12:00:00 - 20.11.2018 12:00:00 (CET)
Datum & Tijd tt [°C] td [°C] tt 5cm [°C] tt -20cm [°C] tt -100cm [°C] ff [km/u] ff [kn] fx [km/u] fx [kn] dd ppp [hPa] vv [km] sd [min] rr [mm]
20.11.2018 12:00:00 4,6 -0,2 4,6 7,0 12,7 4 2 17 9 NO 1002,5 17 30 0,0
20.11.2018 11:00:00 2,8 -0,5 2,4 7,0 12,7 11 6 17 9 NNO 1002,8 16 4 0,0
20.11.2018 10:00:00 2,1 0,3 2,1 7,0 12,8 11 6 17 9 NO 1002,7 8 4 0,0
20.11.2018 09:00:00 1,9 0,6 1,7 7,0 12,7 8 5 17 9 NNO 1002,8 8 0 0,0
20.11.2018 08:00:00 1,9 0,4 1,8 7,1 12,8 11 6 21 11 NNO 1002,8 10 0 0,0
20.11.2018 07:00:00 2,0 0,5 1,9 7,1 12,8 11 6 21 11 NNO 1002,7 11 0 0,0
20.11.2018 06:00:00 2,1 0,6 2,0 7,1 12,8 12 7 22 12 NO 1003,0 16 0 0,0
20.11.2018 05:00:00 2,4 0,6 2,1 7,1 12,8 13 7 26 14 NNO 1003,3 20 0 0,0
20.11.2018 04:00:00 2,7 0,8 2,4 7,2 12,8 11 6 21 11 NNO 1003,7 20 0 0,0
20.11.2018 03:00:00 2,6 0,7 1,8 7,2 12,8 10 5 21 11 NNO 1004,5 20 0 0,0
20.11.2018 02:00:00 2,5 0,4 2,0 7,2 12,8 14 7 29 15 NNO 1004,8 20 0 0,0
20.11.2018 01:00:00 2,7 0,4 2,1 7,3 12,8 16 8 29 16 NNO 1005,4 20 0 0,0
20.11.2018 00:00:00 2,5 0,2 1,3 7,3 12,8 14 8 31 17 NO 1006,1 20 0 0,0
19.11.2018 23:00:00 2,4 0,5 1,6 7,3 12,9 16 9 31 17 NNO 1006,3 20 0 0,0
19.11.2018 22:00:00 3,2 0,8 2,5 7,3 12,9 20 11 35 19 NNO 1007,0 20 0 0,0
19.11.2018 21:00:00 3,6 0,8 3,0 7,4 12,9 19 10 31 17 NNO 1007,4 20 0 0,0
19.11.2018 20:00:00 3,7 0,7 3,3 7,4 12,9 19 10 30 16 NNO 1008,1 20 0 0,0
19.11.2018 19:00:00 3,9 0,2 3,5 7,4 12,9 15 8 33 18 NNO 1008,6 20 0 0,0
19.11.2018 18:00:00 4,0 -0,2 3,6 7,3 12,9 16 9 34 19 NNO 1009,0 20 0 0,0
19.11.2018 17:00:00 4,3 0,1 4,0 7,3 12,9 18 10 43 23 NO 1009,5 19 0 0,0
19.11.2018 16:00:00 4,8 -0,4 4,9 7,2 12,9 24 13 45 24 NO 1009,8 20 28 0,0
19.11.2018 15:00:00 5,8 -1,1 7,0 7,2 12,9 22 12 39 21 NNO 1009,9 20 60 0,0
19.11.2018 14:00:00 4,6 -2,1 6,9 7,1 13,0 24 13 44 24 NO 1010,9 20 60 0,0
19.11.2018 13:00:00 3,9 -2,5 5,7 7,1 13,0 20 11 40 22 NO 1011,7 20 60 0,0
19.11.2018 12:00:00 2,8 -4,9 4,7 7,1 13,0 22 12 40 22 NO 1012,4 20 60 0,0
19.11.2018 11:00:00 2,1 -4,9 3,7 7,2 13,0 20 11 39 21 NO 1013,5 20 53 0,0
19.11.2018 10:00:00 1,2 -5,1 2,1 7,4 13,0 19 11 36 20 NO 1013,9 20 60 0,0
19.11.2018 09:00:00 0,8 -4,8 -0,8 7,4 13,0 17 9 30 16 NO 1014,2 20 28 0,0
19.11.2018 08:00:00 0,2 -3,7 -0,9 7,5 13,0 16 8 30 16 NNO 1014,1 20 0 0,0
19.11.2018 07:00:00 0,6 -3,1 -0,4 7,7 13,0 16 9 32 17 NO 1014,3 20 0 0,0
19.11.2018 06:00:00 0,9 -2,7 -0,1 7,7 13,0 17 9 31 17 NO 1014,4 20 0 0,0
19.11.2018 05:00:00 1,2 -2,0 0,1 7,8 13,0 16 9 27 15 NNO 1014,9 20 0 0,0
19.11.2018 04:00:00 1,3 -1,6 0,2 7,9 13,0 16 8 27 14 NNO 1015,5 20 0 0,0
19.11.2018 03:00:00 1,7 -1,4 0,4 8,0 13,0 12 7 29 16 NO 1016,1 20 0 0,0
19.11.2018 02:00:00 1,8 -1,1 0,6 8,1 13,0 15 8 24 13 NNO 1016,3 20 0 0,0
19.11.2018 01:00:00 2,1 -0,8 0,9 8,2 13,0 14 8 25 13 NNO 1017,1 20 0 0,0
19.11.2018 00:00:00 2,4 -0,7 1,4 8,3 13,0 13 7 27 15 NO 1017,7 20 0 0,0
18.11.2018 23:00:00 2,8 -0,3 1,5 8,4 13,1 15 8 26 14 NO 1018,0 20 0 0,0
18.11.2018 22:00:00 2,9 -0,2 0,7 8,5 13,0 12 6 22 12 NO 1018,1 20 0 0,0
18.11.2018 21:00:00 3,5 -0,2 2,0 8,6 13,1 10 6 23 13 NO 1018,1 20 0 0,0
18.11.2018 20:00:00 3,8 0,1 2,3 8,6 13,1 16 8 27 15 NO 1018,4 20 0 0,0
18.11.2018 19:00:00 3,5 0,2 2,6 8,6 13,1 14 8 27 15 NO 1018,8 19 0 0,0
18.11.2018 18:00:00 4,3 0,6 3,4 8,6 13,1 18 10 34 18 NO 1018,8 19 0 0,0
18.11.2018 17:00:00 5,5 0,7 4,8 8,6 13,1 18 10 37 20 NO 1019,0 20 42 0,0
18.11.2018 16:00:00 7,1 1,8 8,5 8,5 13,1 16 9 36 19 NO 1018,5 20 60 0,0
18.11.2018 15:00:00 7,5 1,8 9,5 8,4 13,1 19 10 35 19 NO 1018,7 20 58 0,0
18.11.2018 14:00:00 6,9 2,2 9,3 8,4 13,1 18 10 32 17 NO 1019,3 18 60 0,0
18.11.2018 13:00:00 6,2 2,3 8,2 8,3 13,1 19 10 32 17 NO 1019,6 16 60 0,0
18.11.2018 12:00:00 4,8 1,1 6,8 8,4 13,1 19 10 37 20 NO 1020,5 17 60 0,0
18.11.2018 11:00:00 3,8 0,8 5,2 8,4 13,1 20 11 31 17 ONO 1021,1 16 52 0,0
18.11.2018 10:00:00 2,5 -0,1 2,7 8,5 13,1 16 9 30 16 ONO 1021,1 17 60 0,0
18.11.2018 09:00:00 1,4 -0,7 -0,1 8,6 13,1 13 7 24 13 NO 1021,2 17 29 0,0
18.11.2018 08:00:00 0,8 -0,7 -0,1 8,8 13,2 11 6 22 12 NNO 1021,0 11 0 0,0
18.11.2018 07:00:00 1,2 -0,3 0,1 8,9 13,1 10 5 17 9 NO 1020,9 11 0 0,0
18.11.2018 06:00:00 1,7 0,1 0,7 9,0 13,1 10 5 24 13 ONO 1020,5 11 0 0,0
18.11.2018 05:00:00 2,0 0,2 1,0 9,1 13,2 15 8 27 15 NO 1020,5 10 0 0,0
18.11.2018 04:00:00 2,2 0,4 1,4 9,2 13,1 14 8 28 15 NO 1020,9 9 0 0,0
18.11.2018 03:00:00 2,6 0,7 1,7 9,3 13,1 15 8 29 15 NO 1021,1 10 0 0,0
18.11.2018 02:00:00 2,8 0,7 2,0 9,5 13,2 14 8 29 16 ONO 1021,1 10 0 0,0
18.11.2018 01:00:00 2,9 0,8 1,8 9,6 13,2 18 10 31 17 NO 1020,9 9 0 0,0
18.11.2018 00:00:00 3,0 0,9 2,1 9,7 13,2 12 7 25 14 ONO 1021,1 10 0 0,0
17.11.2018 23:00:00 3,3 0,9 2,4 9,8 13,2 16 8 31 17 ONO 1021,2 10 0 0,0
17.11.2018 22:00:00 3,3 1,0 2,5 9,9 13,1 14 7 29 16 ONO 1021,3 10 0 0,0
17.11.2018 21:00:00 3,6 1,3 2,7 10,0 13,2 15 8 30 16 ONO 1021,5 9 0 0,0
17.11.2018 20:00:00 3,6 1,6 2,7 10,0 13,2 13 7 32 18 NO 1021,4 8 0 0,0
17.11.2018 19:00:00 5,3 2,5 4,7 10,1 13,2 19 11 33 18 NO 1021,2 9 0 0,0
17.11.2018 18:00:00 5,4 3,1 4,9 10,1 13,2 14 7 39 21 ONO 1021,2 8 0 0,0
17.11.2018 17:00:00 5,5 2,7 5,4 10,1 13,1 19 10 34 18 NO 1021,1 11 0 0,0
17.11.2018 16:00:00 5,5 2,3 5,7 10,2 13,2 17 9 30 16 ONO 1021,1 13 0 0,0
17.11.2018 15:00:00 5,1 2,4 5,4 10,2 13,2 19 10 34 19 NO 1021,1 9 0 0,0
17.11.2018 14:00:00 4,8 2,2 5,7 10,3 13,2 19 10 34 19 NO 1021,3 8 0 0,0
17.11.2018 13:00:00 5,0 2,5 5,5 10,3 13,2 17 9 33 18 ONO 1021,7 9 0 0,0
17.11.2018 12:00:00 4,5 2,4 5,0 10,4 13,2 18 10 34 19 NO 1022,4 8 0 0,0
17.11.2018 11:00:00 3,8 2,0 4,5 10,4 13,2 16 9 28 15 ONO 1022,9 8 0 0,0
17.11.2018 10:00:00 3,7 2,5 4,1 10,5 13,2 16 9 28 15 O 1023,0 7 0 0,0
17.11.2018 09:00:00 3,4 2,2 4,1 10,6 13,2 14 8 29 15 ONO 1023,2 8 0 0,0
17.11.2018 08:00:00 3,6 2,7 4,0 10,7 13,2 15 8 29 16 ONO 1022,9 7 0 0,0
17.11.2018 07:00:00 4,0 3,6 4,3 10,7 13,2 16 9 29 16 NO 1022,6 5 0 0,0
17.11.2018 06:00:00 4,7 4,7 4,8 10,8 13,2 16 8 29 16 ONO 1022,7 1,5 0 0,0
17.11.2018 05:00:00 5,2 5,2 5,3 10,9 13,2 17 9 26 14 NO 1023,1 0,7 0 0,0
17.11.2018 04:00:00 5,4 5,4 5,5 10,9 13,2 13 7 24 13 NO 1023,5 0,3 0 0,0
17.11.2018 03:00:00 5,7 5,7 5,8 10,9 13,2 14 7 27 14 NO 1023,8 0,5 0 0,0
17.11.2018 02:00:00 5,8 5,8 5,9 11,0 13,2 14 7 26 14 NO 1023,7 0,4 0 0,0
17.11.2018 01:00:00 6,6 6,6 6,7 11,0 13,2 13 7 24 13 ONO 1023,7 0,5 0 0,2
17.11.2018 00:00:00 6,9 6,9 7,0 11,1 13,2 13 7 25 13 NO 1023,4 0,4 0 0,0
16.11.2018 23:00:00 7,1 7,1 7,2 11,1 13,2 14 8 26 14 ONO 1023,6 0,4 0 0,0
16.11.2018 22:00:00 7,4 7,4 7,5 11,1 13,2 13 7 29 16 NO 1023,6 0,3 0 0,0
16.11.2018 21:00:00 7,8 7,8 7,9 11,1 13,2 12 7 26 14 ONO 1023,6 0,4 0 0,0
16.11.2018 20:00:00 8,1 8,1 8,2 11,2 13,2 13 7 27 15 ONO 1023,6 0,4 0 0,0
16.11.2018 19:00:00 8,3 8,3 8,4 11,2 13,2 11 6 24 13 ONO 1023,6 0,7 0 0,0
16.11.2018 18:00:00 8,5 8,5 8,6 11,2 13,2 13 7 23 12 NO 1023,5 0,3 0 0,0
16.11.2018 17:00:00 8,9 8,9 9,1 11,1 13,2 13 7 23 12 ONO 1023,4 0,2 0 0,0
16.11.2018 16:00:00 9,2 9,2 9,5 11,1 13,2 11 6 23 12 ONO 1023,5 0,2 0 0,0
16.11.2018 15:00:00 9,0 9,0 9,4 11,1 13,2 13 7 22 12 ONO 1023,7 0,3 0 0,0
16.11.2018 14:00:00 9,0 9,0 9,4 11,0 13,2 11 6 21 12 ONO 1024,1 0,4 0 0,0
16.11.2018 13:00:00 8,7 8,7 9,2 11,0 13,2 11 6 23 12 ONO 1024,4 0,5 0 0,0
16.11.2018 12:00:00 8,4 8,4 8,8 11,0 13,2 11 6 21 11 ONO 1024,6 0,3 0 0,0
16.11.2018 11:00:00 8,1 8,1 8,5 11,0 13,2 10 6 20 11 ONO 1024,8 0,3 0 0,0
16.11.2018 10:00:00 8,1 8,1 8,2 11,0 13,2 12 7 21 11 O 1024,5 0,3 0 0,0
16.11.2018 09:00:00 8,1 8,0 8,2 11,1 13,2 11 6 20 11 O 1024,2 0,2 0 0,0
16.11.2018 08:00:00 8,2 8,1 8,2 11,1 13,2 11 6 22 12 NO 1023,6 0,2 0 0,2
16.11.2018 07:00:00 8,1 8,0 8,1 11,2 13,2 6 4 16 9 NO 1023,5 0,2 0 0,0
16.11.2018 06:00:00 8,1 8,0 8,1 11,2 13,2 7 4 15 8 NO 1023,3 0,2 0 0,0
16.11.2018 05:00:00 8,1 8,0 8,0 11,2 13,2 6 4 19 10 NO 1023,0 0,2 0 0,0
16.11.2018 04:00:00 7,9 7,8 8,0 11,2 13,2 9 5 16 8 NO 1022,8 0,2 0 0,0
16.11.2018 03:00:00 8,3 8,2 8,4 11,3 13,2 7 4 19 10 ONO 1022,8 0,2 0 0,0
16.11.2018 02:00:00 8,5 8,4 8,5 11,3 13,2 8 5 15 8 ONO 1022,9 0,4 0 0,0
16.11.2018 01:00:00 8,8 8,7 8,9 11,3 13,2 8 4 18 10 NO 1023,0 0,2 0 0,0
16.11.2018 00:00:00 9,5 9,4 9,5 11,2 13,2 8 4 14 8 ONO 1022,7 0,2 0 0,0
15.11.2018 23:00:00 9,8 9,7 9,8 11,2 13,2 9 5 18 10 ONO 1022,6 0,2 0 0,0
15.11.2018 22:00:00 10,4 10,2 10,4 11,2 13,2 9 5 19 10 ONO 1022,6 0,3 0 0,0
15.11.2018 21:00:00 10,6 10,4 10,6 11,2 13,2 11 6 21 11 ONO 1022,1 0,2 0 0,0
15.11.2018 20:00:00 10,9 10,7 10,8 11,1 13,2 10 5 15 8 ONO 1022,0 0,2 0 0,0
15.11.2018 19:00:00 10,9 10,7 10,7 11,1 13,3 8 4 16 8 OZO 1021,9 2,2 0 0,0
15.11.2018 18:00:00 10,9 10,7 10,9 11,1 13,3 12 6 17 9 O 1021,4 3,7 0 0,0
15.11.2018 17:00:00 11,1 10,9 11,3 11,0 13,2 10 5 16 9 O 1021,3 3,8 0 0,0
15.11.2018 16:00:00 11,3 11,0 11,6 10,9 13,2 15 8 19 10 OZO 1021,1 5 0 0,0
15.11.2018 15:00:00 11,1 10,9 11,6 10,8 13,2 17 9 23 12 O 1021,3 5 0 0,0
15.11.2018 14:00:00 10,7 10,5 11,3 10,7 13,3 11 6 18 10 O 1021,7 2,7 0 0,0
15.11.2018 13:00:00 10,5 10,3 10,7 10,6 13,3 11 6 18 10 O 1022,1 0,7 0 0,0
15.11.2018 12:00:00 9,9 9,7 10,0 10,6 13,3 13 7 20 11 O 1022,5 0,3 0 0,0
15.11.2018 11:00:00 9,3 9,2 9,4 10,6 13,3 16 8 21 11 O 1022,8 0,3 0 0,0
15.11.2018 10:00:00 8,9 8,8 8,9 10,6 13,3 11 6 18 10 O 1022,7 0,2 0 0,0
15.11.2018 09:00:00 8,7 8,6 8,6 10,6 13,3 15 8 20 11 O 1022,6 0,2 0 0,2
15.11.2018 08:00:00 8,6 8,5 8,5 10,6 13,3 14 8 20 11 O 1022,3 0,2 0 0,0
15.11.2018 07:00:00 8,7 8,6 8,7 10,6 13,3 13 7 17 9 O 1022,1 0,2 0 0,0
15.11.2018 06:00:00 8,8 8,7 8,7 10,6 13,3 12 7 17 9 O 1021,8 0,2 0 0,0
15.11.2018 05:00:00 8,8 8,7 8,7 10,6 13,3 12 7 16 9 O 1021,7 0,1 0 0,0
15.11.2018 04:00:00 8,8 8,7 8,4 10,6 13,3 11 6 16 8 OZO 1021,9 0,1 0 0,0
15.11.2018 03:00:00 8,4 8,3 7,8 10,7 13,3 11 6 17 9 OZO 1022,2 0,2 0 0,0
15.11.2018 02:00:00 7,8 7,7 7,1 10,7 13,3 12 7 17 9 OZO 1022,4 0,2 0 0,2
15.11.2018 01:00:00 7,2 7,1 6,8 10,8 13,3 12 6 15 8 O 1022,7 0,2 0 0,0
15.11.2018 00:00:00 7,1 7,0 6,5 10,8 13,3 5 3 7 4 O 1022,9 0,2 0 0,0
14.11.2018 23:00:00 7,2 7,1 5,4 10,8 13,3 4 2 7 4 ONO 1023,1 0,1 0 0,0
14.11.2018 22:00:00 7,5 7,4 5,3 10,8 13,2 0 0 7 4 N 1023,2 0,4 0 0,0
14.11.2018 21:00:00 8,2 8,1 6,9 10,8 13,3 2 1 5 3 NO 1023,1 0,1 0 0,0
14.11.2018 20:00:00 9,6 9,5 9,4 10,7 13,3 5 3 13 7 OZO 1023,2 0,1 0 0,0
14.11.2018 19:00:00 10,1 9,9 10,0 10,7 13,3 11 6 14 7 OZO 1023,4 0,1 0 0,0
14.11.2018 18:00:00 10,7 10,5 10,6 10,6 13,3 9 5 16 9 OZO 1023,4 0,2 0 0,0
14.11.2018 17:00:00 10,8 10,6 10,9 10,5 13,3 10 6 16 9 OZO 1023,6 0,2 0 0,0
14.11.2018 16:00:00 10,9 10,7 11,1 10,4 13,3 12 7 17 9 O 1023,8 0,7 0 0,0
14.11.2018 15:00:00 10,9 10,7 11,1 10,3 13,3 9 5 16 9 O 1023,9 1,6 0 0,0
14.11.2018 14:00:00 10,2 10,0 10,1 10,2 13,3 13 7 17 9 OZO 1024,2 1,3 0 0,0
14.11.2018 13:00:00 8,9 8,8 8,6 10,2 13,3 9 5 13 7 O 1024,7 0,3 0 0,0
14.11.2018 12:00:00 7,8 7,7 8,4 10,1 13,2 8 5 14 8 ZO 1025,4 0,2 0 0,0

tt = temperatuur
td = dauwpunt
tt 5cm = temperatuur 5cm
tt -20cm = temperatuur -20cm
tt -100cm = temperatuur -100cm
ff = windsnelheid
fx = windstoten
dd = windrichting
ppp = luchtdruk
vv = zicht
sd = Zonneschijnduur
rr = neerslag

Weerstations in de omgeving